Hourly Data Report for August 10, 2022

BANCROFT AUTO
ONTARIO
Current Station Operator: ECCC - MSC

45°04'17.000" N
77°52'44.000" W
330.70 m
616I001
71294
WRK

Download Data

Hourly Data (August 2022)
Hourly Data Report for August 10, 2022
TIME
LST
Temp Definition
°C
Dew Point Definition
°C
Rel Hum Definition
%
Precip. Amount Definition
mm

Wind Dir Definition
10's deg

Wind Spd Definition
km/h
Visibility Definition
km
Stn Press Definition
kPa
Hmdx Definition


Wind Chill Definition


Weather Definition


00:00 10.7 10.7 100 0.0 0 1   97.99     LegendNANA
01:00 10.0 10.0 100 0.0   0   98.02     LegendNANA
02:00 9.9 9.8 100 0.0   0   98.01     LegendNANA
03:00 10.0 10.0 100 0.0 30 2   98.02     LegendNANA
04:00 10.1 10.1 100 0.0   0   98.02     LegendNANA
05:00 10.8 10.8 100 0.0   0   98.00     LegendNANA
06:00 12.0 12.0 100 0.0   0   98.03     LegendNANA
07:00 14.0 13.9 100 0.0 1 3   98.06     LegendNANA
08:00 16.2 16.2 100 0.0 35 3   98.08     LegendNANA
09:00 19.2 14.6 75 0.0 29 6   98.06     LegendNANA
10:00 20.7 14.3 67 0.0 14 4   98.02     LegendNANA
11:00 21.7 14.5 64 0.0 27 4   97.99 25   LegendNANA
12:00 23.2 14.7 59 0.0 20 7   97.95 27   LegendNANA
13:00 23.9 14.3 55 0.0 24 6   97.90 27   LegendNANA
14:00 24.1 14.3 54 0.0 21 8   97.87 28   LegendNANA
15:00 24.4 14.8 55 0.0 20 7   97.79 28   LegendNANA
16:00 24.9 14.7 53 0.0 22 6   97.71 29   LegendNANA
17:00 24.6 15.2 56 0.0 25 6   97.67 29   LegendNANA
18:00 23.3 15.1 60 0.0 21 5   97.61 27   LegendNANA
19:00 20.1 16.3 79 0.0 22 2   97.60 25   LegendNANA
20:00 18.0 16.6 92 0.0 23 2   97.63     LegendNANA
21:00 16.2 15.6 96 0.0 29 2   97.67     LegendNANA
22:00 15.2 15.2 100 0.0   0   97.64     LegendNANA
23:00 14.3 14.3 100 0.0   0   97.61     LegendNANA

Notes on Data Quality.

Legend

  • E = Estimated
  • M = Missing
  • NA = Not Available*
  • [empty] = Indicates an unobserved value
Date modified: